FW3961 Weather Reports


Display with metric or nautical units.
time (UTC)temp
F
wind
direction
speed
MPH
gust
MPH
rain 1hr
in
rain 24hr
in
rain mn
in
humidity
%
barometer
mb
20260508033152 65 105 0.0 0.0 0.00 0.00 0.00 53 1017.1
20260508032651 66 106 0.0 0.0 0.00 0.00 0.00 54 1017.1
20260508032151 66 106 0.0 0.0 0.00 0.00 0.00 54 1017.0
20260508031650 66 105 0.0 0.0 0.00 0.00 0.00 53 1016.9
20260508031200 66 105 0.0 0.0 0.00 0.00 0.00 53 1016.9
20260508031151 66 105 0.0 0.0 0.00 0.00 0.00 53 1016.9
20260508030646 66 105 0.0 0.0 0.00 0.00 0.00 53 1016.9
20260508025647 67 105 0.0 0.0 0.00 0.00 0.00 53 1017.0
20260508025146 67 105 0.0 0.0 0.00 0.00 0.00 53 1016.9
20260508024646 67 105 0.0 0.0 0.00 0.00 0.00 53 1016.9
20260508024151 67 105 0.0 0.0 0.00 0.00 0.00 54 1017.0
20260508023650 67 105 0.0 0.0 0.00 0.00 0.00 53 1017.0
20260508023151 67 106 0.0 2.0 0.00 0.00 0.00 51 1017.0
20260508022652 68 105 0.0 2.0 0.00 0.00 0.00 51 1017.0
20260508022140 68 106 0.0 1.0 0.00 0.00 0.00 52 1017.0
20260508021641 68 106 0.0 1.0 0.00 0.00 0.00 53 1017.0
20260508021148 68 106 1.0 2.0 0.00 0.00 0.00 53 1016.9
20260508021144 68 106 0.0 1.0 0.00 0.00 0.00 53 1016.9
20260508020137 69 106 1.0 2.0 0.00 0.00 0.00 53 1016.9
20260508015637 69 106 1.0 2.0 0.00 0.00 0.00 53 1016.9
20260508015137 69 106 1.0 3.0 0.00 0.00 0.00 51 1016.9
20260508014637 69 105 1.0 3.0 0.00 0.00 0.00 52 1017.0
20260508014136 70 143 1.0 2.0 0.00 0.00 0.00 52 1017.0
20260508013636 70 142 1.0 2.0 0.00 0.00 0.00 52 1017.2
20260508013137 70 142 1.0 2.0 0.00 0.00 0.00 52 1017.2
20260508012636 70 143 0.0 2.0 0.00 0.00 0.00 53 1017.3
20260508012139 71 143 1.0 2.0 0.00 0.00 0.00 51 1017.4
20260508011632 71 143 1.0 2.0 0.00 0.00 0.00 51 1017.4
20260508011134 71 147 1.0 2.0 0.00 0.00 0.00 52 1017.4
20260508010633 71 147 1.0 2.0 0.00 0.00 0.00 49 1017.4
20260508010132 72 147 1.0 4.0 0.00 0.00 0.00 51 1017.5
20260508005627 72 147 1.0 4.0 0.00 0.00 0.00 48 1017.4
20260508005120 73 205 1.0 3.0 0.00 0.00 0.00 48 1017.4
20260508004614 73 210 1.0 3.0 0.00 0.00 0.00 46 1017.5
20260508004108 73 171 1.0 3.0 0.00 0.00 0.00 46 1017.5
20260508003604 73 225 1.0 3.0 0.00 0.00 0.00 45 1017.6
20260508003056 73 180 1.0 2.0 0.00 0.00 0.00 48 1017.5
20260508002550 73 180 1.0 2.0 0.00 0.00 0.00 48 1017.6
20260508002044 73 214 0.0 2.0 0.00 0.00 0.00 46 1017.6
20260508001540 73 215 0.0 3.0 0.00 0.00 0.00 50 1017.7
20260508001031 73 218 1.0 3.0 0.00 0.00 0.00 47 1017.6
20260508000526 73 318 1.0 2.0 0.00 0.00 0.00 46 1017.6
20260508000019 73 318 1.0 4.0 0.00 0.00 0.00 47 1017.7
20260507235515 73 315 1.0 4.0 0.00 0.00 0.00 46 1017.8
20260507235008 73 334 1.0 4.0 0.00 0.00 0.00 48 1017.8
20260507234503 72 281 1.0 4.0 0.00 0.00 0.00 48 1017.9
20260507233955 73 42 1.0 4.0 0.00 0.00 0.00 49 1017.8
20260507233452 73 355 2.0 4.0 0.00 0.00 0.00 47 1017.9
20260507232943 73 78 1.0 3.0 0.00 0.00 0.00 47 1018.0
20260507232438 73 155 1.0 4.0 0.00 0.00 0.00 48 1018.1
20260507231932 73 350 1.0 4.0 0.00 0.00 0.00 47 1018.1
20260507231427 73 292 1.0 4.0 0.00 0.00 0.00 47 1018.2
20260507230920 74 144 1.0 4.0 0.00 0.00 0.00 47 1018.3
20260507230414 74 227 1.0 4.0 0.00 0.00 0.00 48 1018.4
20260507225908 73 333 2.0 7.0 0.00 0.00 0.00 49 1018.5
20260507225404 73 308 2.0 7.0 0.00 0.00 0.00 49 1018.6
20260507224856 73 177 1.0 4.0 0.00 0.00 0.00 48 1018.6
20260507224350 73 329 2.0 5.0 0.00 0.00 0.00 49 1018.6
20260507224346 73 351 1.0 5.0 0.00 0.00 0.00 47 1018.8
20260507223337 73 37 1.0 4.0 0.00 0.00 0.00 49 1018.7
20260507223330 73 306 1.0 8.0 0.00 0.00 0.00 47 1018.9
20260507223207 73 71 1.0 4.0 0.00 0.00 0.00 49 1018.9
20260507221820 73 11 1.0 8.0 0.00 0.00 0.00 48 1018.9
20260507221314 73 187 1.0 5.0 0.00 0.00 0.00 49 1019.1
20260507220808 72 196 1.0 5.0 0.00 0.00 0.00 49 1019.0
20260507220302 72 49 1.0 4.0 0.00 0.00 0.00 49 1019.2
20260507215758 72 267 2.0 4.0 0.00 0.00 0.00 49 1019.4
20260507215250 72 330 1.0 3.0 0.00 0.00 0.00 50 1019.2
20260507215246 72 0 1.0 4.0 0.00 0.00 0.00 50 1019.5
20260507214238 72 294 1.0 4.0 0.00 0.00 0.00 50 1019.4
20260507213732 72 254 1.0 4.0 0.00 0.00 0.00 52 1019.4
20260507213226 71 225 2.0 4.0 0.00 0.00 0.00 53 1019.5
20260507212720 71 344 2.0 4.0 0.00 0.00 0.00 53 1019.5
20260507212214 71 298 1.0 5.0 0.00 0.00 0.00 54 1019.6
20260507211710 71 325 1.0 5.0 0.00 0.00 0.00 53 1019.6
20260507211210 71 184 2.0 5.0 0.00 0.00 0.00 56 1019.7
20260507210710 71 346 1.0 5.0 0.00 0.00 0.00 55 1019.7
20260507210210 70 212 1.0 4.0 0.00 0.00 0.00 56 1019.8
20260507205709 70 225 1.0 4.0 0.00 0.00 0.00 59 1019.9
20260507205208 70 348 2.0 4.0 0.00 0.00 0.00 56 1019.9
20260507204709 70 287 1.0 5.0 0.00 0.00 0.00 57 1019.9
20260507204207 70 192 2.0 5.0 0.00 0.00 0.00 57 1020.0
20260507203707 69 307 1.0 5.0 0.00 0.00 0.00 56 1020.0
20260507203210 69 243 2.0 5.0 0.00 0.00 0.00 59 1020.3
20260507203206 69 240 1.0 5.0 0.00 0.00 0.00 59 1020.1
20260507202206 69 213 2.0 5.0 0.00 0.00 0.00 59 1020.3
20260507201707 68 296 1.0 3.0 0.00 0.00 0.00 59 1020.4
20260507201206 68 319 2.0 4.0 0.00 0.00 0.00 60 1020.4
20260507200704 68 199 2.0 4.0 0.00 0.00 0.00 62 1020.3
20260507200205 67 220 2.0 4.0 0.00 0.00 0.00 61 1020.5
20260507195704 67 321 2.0 4.0 0.00 0.00 0.00 63 1020.5
20260507195204 67 271 1.0 4.0 0.00 0.00 0.00 64 1020.5
20260507194705 67 21 2.0 4.0 0.00 0.00 0.00 63 1020.5
20260507194203 67 270 2.0 4.0 0.00 0.00 0.00 62 1020.6
20260507193704 67 19 2.0 4.0 0.00 0.00 0.00 63 1020.7
20260507193204 67 178 2.0 5.0 0.00 0.00 0.00 64 1020.5
20260507192704 67 333 2.0 5.0 0.00 0.00 0.00 63 1020.7
20260507192200 67 325 2.0 4.0 0.00 0.00 0.00 63 1020.7
20260507191700 67 196 2.0 4.0 0.00 0.00 0.00 63 1020.8
20260507191200 67 294 1.0 5.0 0.00 0.00 0.00 64 1020.8
20260507190659 66 280 1.0 5.0 0.00 0.00 0.00 68 1021.0
20260507190205 65 132 1.0 4.0 0.00 0.00 0.00 66 1021.0
20260507185704 64 130 1.0 4.0 0.00 0.00 0.00 68 1021.1
20260507185205 64 5 1.0 4.0 0.00 0.00 0.00 68 1021.0
20260507184703 63 56 2.0 5.0 0.00 0.00 0.00 69 1021.0
20260507184205 62 80 2.0 5.0 0.00 0.00 0.00 69 1021.1
20260507183657 62 50 2.0 4.0 0.00 0.00 0.00 73 1021.1
20260507183151 61 0 2.0 4.0 0.00 0.00 0.00 71 1021.2
20260507182645 61 61 1.0 4.0 0.00 0.00 0.00 73 1021.2
20260507182140 61 302 1.0 4.0 0.00 0.00 0.00 73 1021.2
20260507181640 61 20 2.0 8.0 0.00 0.00 0.00 73 1021.3
20260507181636 61 113 2.0 5.0 0.00 0.00 0.00 73 1021.2
20260507180622 61 0 1.0 3.0 0.00 0.00 0.00 74 1021.3
20260507180116 60 65 1.0 3.0 0.00 0.00 0.00 75 1021.3
20260507175609 60 62 1.0 3.0 0.00 0.00 0.00 73 1021.3
20260507175107 60 33 1.0 4.0 0.00 0.00 0.00 73 1021.4
20260507175058 60 314 1.0 4.0 0.00 0.00 0.00 73 1021.4
20260507174050 60 80 1.0 4.0 0.00 0.00 0.00 73 1021.5
20260507173543 60 318 1.0 4.0 0.00 0.00 0.00 75 1021.4
20260507173037 59 340 1.0 5.0 0.00 0.00 0.00 75 1021.5
20260507172533 59 0 1.0 5.0 0.00 0.00 0.00 75 1021.4
20260507172025 59 319 1.0 4.0 0.00 0.00 0.00 75 1021.5
20260507171520 59 282 1.0 3.0 0.00 0.00 0.00 76 1021.5
20260507171013 58 296 1.0 5.0 0.00 0.00 0.00 76 1021.4
20260507170507 58 58 1.0 5.0 0.00 0.00 0.00 77 1021.5
20260507170001 58 300 1.0 5.0 0.00 0.00 0.00 78 1021.4
20260507165456 58 5 2.0 4.0 0.00 0.00 0.00 77 1021.4
20260507164949 57 316 1.0 3.0 0.00 0.00 0.00 78 1021.3
20260507164443 57 221 1.0 3.0 0.00 0.00 0.00 78 1021.3
20260507163937 57 307 1.0 4.0 0.00 0.00 0.00 79 1021.4
20260507163432 56 331 1.0 4.0 0.00 0.00 0.00 79 1021.3
20260507162925 56 303 1.0 4.0 0.00 0.00 0.00 78 1021.3
20260507162420 56 342 1.0 4.0 0.00 0.00 0.00 80 1021.4
20260507161913 56 280 1.0 3.0 0.00 0.00 0.00 80 1021.4
20260507161407 56 270 1.0 3.0 0.00 0.00 0.00 79 1021.4
20260507160901 55 192 1.0 3.0 0.00 0.00 0.00 80 1021.4
20260507160355 55 289 1.0 3.0 0.00 0.00 0.00 79 1021.4
20260507155850 55 232 1.0 4.0 0.00 0.00 0.00 80 1021.5
20260507155343 55 324 1.0 4.0 0.00 0.00 0.00 80 1021.4
20260507154837 55 53 1.0 3.0 0.00 0.00 0.00 80 1021.5
20260507154331 55 22 1.0 3.0 0.00 0.00 0.00 80 1021.5
20260507153826 55 334 1.0 5.0 0.00 0.00 0.00 81 1021.4
20260507153320 54 12 2.0 5.0 0.00 0.00 0.00 80 1021.4
20260507152813 54 59 1.0 4.0 0.00 0.00 0.00 81 1021.3
20260507152312 54 252 1.0 3.0 0.00 0.00 0.00 81 1021.4
20260507152308 54 279 1.0 3.0 0.00 0.00 0.00 81 1021.3
20260507151256 54 55 1.0 3.0 0.00 0.00 0.00 81 1021.4
20260507150749 54 52 1.0 3.0 0.00 0.00 0.00 82 1021.4
20260507150244 54 325 0.0 3.0 0.00 0.00 0.00 82 1021.4
20260507145741 53 259 0.0 3.0 0.00 0.00 0.00 82 1021.3
20260507145737 53 267 0.0 2.0 0.00 0.00 0.00 82 1021.4
20260507144725 53 286 1.0 3.0 0.00 0.00 0.00 82 1021.4
20260507144219 53 298 1.0 3.0 0.00 0.00 0.00 82 1021.3
20260507143714 53 355 1.0 3.0 0.00 0.00 0.00 82 1021.3
20260507143548 53 306 0.0 2.0 0.00 0.00 0.00 83 1021.3
20260507143439 53 280 0.0 3.0 0.00 0.00 0.00 83 1021.3
20260507142155 53 306 0.0 2.0 0.00 0.00 0.00 83 1021.2
20260507141650 53 305 0.0 2.0 0.00 0.00 0.00 83 1021.2
20260507141147 52 294 0.0 2.0 0.00 0.00 0.00 84 1021.0
20260507141143 53 305 0.0 2.0 0.00 0.00 0.00 84 1021.1
20260507140133 52 294 0.0 2.0 0.00 0.00 0.00 84 1021.1
20260507135625 52 293 0.0 2.0 0.00 0.00 0.00 84 1021.1
20260507135119 52 293 0.0 2.0 0.00 0.00 0.00 84 1021.0
20260507134953 52 242 0.0 2.0 0.00 0.00 0.00 85 1020.9
20260507134843 52 298 0.0 2.0 0.00 0.00 0.00 84 1021.0
20260507133601 52 242 0.0 2.0 0.00 0.00 0.00 85 1021.0
20260507133055 52 321 0.0 2.0 0.00 0.00 0.00 85 1021.0
20260507132549 52 321 0.0 2.0 0.00 0.00 0.00 85 1021.0
20260507132045 53 321 0.0 2.0 0.00 0.00 0.00 86 1021.0
20260507131545 53 326 0.0 1.0 0.00 0.00 0.00 86 1021.0
20260507131045 53 326 0.0 2.0 0.00 0.00 0.00 86 1021.1
20260507130544 53 326 0.0 2.0 0.00 0.00 0.00 86 1021.1
20260507130041 53 284 0.0 1.0 0.00 0.00 0.00 86 1021.1
20260507125539 53 284 0.0 0.0 0.00 0.00 0.00 87 1021.1
20260507125038 53 284 0.0 0.0 0.00 0.00 0.00 87 1021.1
20260507124536 53 284 0.0 1.0 0.00 0.00 0.00 87 1021.2
20260507124036 53 284 0.0 1.0 0.00 0.00 0.00 87 1021.2
20260507123536 53 284 0.0 1.0 0.00 0.00 0.00 87 1021.1
20260507123038 53 284 0.0 1.0 0.00 0.00 0.00 87 1021.2
20260507122536 53 284 0.0 2.0 0.00 0.00 0.00 87 1021.2
20260507122037 53 284 0.0 2.0 0.00 0.00 0.00 87 1021.3
20260507121537 53 284 0.0 1.0 0.00 0.00 0.00 87 1021.3
20260507121036 53 284 0.0 1.0 0.00 0.00 0.00 87 1021.3
20260507120536 53 284 0.0 2.0 0.00 0.00 0.00 87 1021.3
20260507120037 53 284 0.0 2.0 0.00 0.00 0.00 87 1021.4
20260507115537 53 284 0.0 1.0 0.00 0.00 0.00 87 1021.4
20260507115416 53 284 0.0 1.0 0.00 0.00 0.00 87 1021.4
20260507115308 53 284 0.0 0.0 0.00 0.00 0.00 87 1021.4
20260507114036 53 284 0.0 1.0 0.00 0.00 0.00 87 1021.4
20260507113536 53 284 0.0 1.0 0.00 0.00 0.00 87 1021.5
20260507113037 53 284 0.0 1.0 0.00 0.00 0.00 87 1021.5
20260507112536 53 284 0.0 2.0 0.00 0.00 0.00 86 1021.5
20260507112037 53 284 0.0 2.0 0.00 0.00 0.00 86 1021.6
20260507111541 53 282 0.0 3.0 0.00 0.00 0.00 86 1021.6
20260507111536 53 284 0.0 2.0 0.00 0.00 0.00 86 1021.6
20260507110536 53 282 0.0 3.0 0.00 0.00 0.00 86 1021.6
20260507110037 53 271 0.0 2.0 0.00 0.00 0.00 86 1021.6
20260507105535 53 271 0.0 2.0 0.00 0.00 0.00 86 1021.6
20260507105034 53 271 0.0 2.0 0.00 0.00 0.00 86 1021.7
20260507104534 53 271 0.0 2.0 0.00 0.00 0.00 86 1021.6
20260507104039 53 270 0.0 2.0 0.00 0.00 0.00 86 1021.7
20260507103536 53 271 0.0 2.0 0.00 0.00 0.00 86 1021.7
20260507103030 53 271 0.0 2.0 0.00 0.00 0.00 86 1021.7
20260507102524 53 267 0.0 2.0 0.00 0.00 0.00 86 1021.8
20260507102018 53 308 0.0 2.0 0.00 0.00 0.00 86 1021.8
20260507101512 53 308 0.0 2.0 0.00 0.00 0.00 86 1021.8
20260507101006 53 308 0.0 2.0 0.00 0.00 0.00 86 1021.8
20260507100501 53 261 0.0 1.0 0.00 0.00 0.00 86 1021.9
20260507095958 53 270 0.0 2.0 0.00 0.00 0.00 86 1021.9
20260507095954 53 270 0.0 1.0 0.00 0.00 0.00 86 1021.9
20260507094943 53 270 0.0 3.0 0.00 0.00 0.00 86 1022.0
20260507094436 53 270 0.0 3.0 0.00 0.00 0.00 86 1022.0
20260507093930 53 246 0.0 1.0 0.00 0.00 0.00 86 1022.1
20260507093424 53 246 0.0 1.0 0.00 0.00 0.00 86 1022.0
20260507092918 53 246 0.0 1.0 0.00 0.00 0.00 86 1022.1
20260507092412 53 246 0.0 2.0 0.00 0.00 0.00 86 1022.1
20260507091906 53 246 0.0 2.0 0.00 0.00 0.00 86 1022.2
20260507091407 53 257 0.0 2.0 0.00 0.00 0.00 86 1022.3
20260507091403 53 246 0.0 2.0 0.00 0.00 0.00 86 1022.2
20260507090349 53 271 0.0 2.0 0.00 0.00 0.00 86 1022.2
20260507085845 53 271 0.0 2.0 0.00 0.00 0.00 86 1022.3
20260507085837 53 271 1.0 3.0 0.00 0.00 0.00 85 1022.3
20260507084830 53 271 1.0 3.0 0.00 0.00 0.00 85 1022.3
20260507084325 53 281 0.0 2.0 0.00 0.00 0.00 85 1022.3
20260507083819 53 279 1.0 3.0 0.00 0.00 0.00 85 1022.3
20260507083315 53 273 1.0 3.0 0.00 0.00 0.00 85 1022.3
20260507083307 53 251 1.0 3.0 0.00 0.00 0.00 85 1022.2
20260507083146 53 302 1.0 3.0 0.00 0.00 0.00 85 1022.3
20260507081758 53 265 1.0 3.0 0.00 0.00 0.00 85 1022.2
20260507081754 53 217 0.0 3.0 0.00 0.00 0.00 85 1022.3
20260507080741 53 286 1.0 4.0 0.00 0.00 0.00 85 1022.4
20260507080236 53 260 1.0 4.0 0.00 0.00 0.00 85 1022.4
20260507075730 53 284 0.0 2.0 0.00 0.00 0.00 85 1022.4
20260507075224 53 283 1.0 2.0 0.00 0.00 0.00 85 1022.4
20260507074718 53 313 1.0 3.0 0.00 0.00 0.00 85 1022.3
20260507074213 53 192 1.0 3.0 0.00 0.00 0.00 85 1022.4
20260507073706 53 332 0.0 3.0 0.00 0.00 0.00 85 1022.4
20260507073200 53 355 1.0 3.0 0.00 0.00 0.00 85 1022.4
20260507072654 53 300 1.0 4.0 0.00 0.00 0.00 85 1022.4
20260507072152 53 245 1.0 4.0 0.00 0.00 0.00 85 1022.3
20260507072148 53 292 1.0 4.0 0.00 0.00 0.00 85 1022.3
20260507071136 53 200 0.0 2.0 0.00 0.00 0.00 85 1022.3
20260507070630 53 199 0.0 2.0 0.00 0.00 0.00 85 1022.3
20260507070123 53 215 0.0 2.0 0.00 0.00 0.00 85 1022.3
20260507065619 53 217 0.0 3.0 0.00 0.00 0.00 85 1022.3
20260507065113 53 355 1.0 3.0 0.00 0.00 0.00 85 1022.3
20260507064607 53 185 0.0 2.0 0.00 0.00 0.00 85 1022.3
20260507064102 53 187 0.0 1.0 0.00 0.00 0.00 85 1022.3
20260507063602 53 213 0.0 2.0 0.00 0.00 0.00 85 1022.3
20260507063059 53 203 0.0 2.0 0.00 0.00 0.00 85 1022.4
20260507062557 53 269 0.0 3.0 0.00 0.00 0.00 85 1022.4
20260507062056 53 348 0.0 3.0 0.00 0.00 0.00 85 1022.4
20260507061555 53 267 1.0 2.0 0.00 0.00 0.00 85 1022.4
20260507061052 53 259 1.0 3.0 0.00 0.00 0.00 85 1022.4
20260507060551 52 300 1.0 5.0 0.00 0.00 0.00 85 1022.5
20260507060050 52 270 1.0 5.0 0.00 0.00 0.00 85 1022.5
20260507055551 52 290 1.0 3.0 0.00 0.00 0.00 85 1022.5
20260507055049 52 217 1.0 4.0 0.00 0.00 0.00 84 1022.5
20260507054553 53 323 1.0 4.0 0.00 0.00 0.00 84 1022.4
20260507054049 53 293 1.0 3.0 0.00 0.00 0.00 84 1022.3
20260507053553 53 275 1.0 5.0 0.00 0.00 0.00 84 1022.4
20260507053549 53 261 1.0 5.0 0.00 0.00 0.00 84 1022.4
20260507052547 53 257 1.0 5.0 0.00 0.00 0.00 84 1022.4
20260507052047 53 33 1.0 5.0 0.00 0.00 0.00 84 1022.4
20260507051551 53 246 1.0 4.0 0.00 0.00 0.00 84 1022.4
20260507051546 53 319 1.0 4.0 0.00 0.00 0.00 84 1022.4
20260507050545 53 233 1.0 7.0 0.00 0.00 0.00 84 1022.4
20260507050049 53 293 1.0 4.0 0.00 0.00 0.00 83 1022.3
20260507050045 53 277 1.0 7.0 0.00 0.00 0.00 84 1022.2
20260507045045 53 99 1.0 3.0 0.00 0.00 0.00 83 1022.2
20260507044545 54 259 1.0 5.0 0.00 0.00 0.00 83 1022.2
20260507044044 54 209 1.0 5.0 0.00 0.00 0.00 83 1022.2
20260507043544 54 308 1.0 3.0 0.00 0.00 0.00 83 1022.1
20260507043040 54 252 0.0 3.0 0.00 0.00 0.00 83 1022.1
20260507042545 55 214 1.0 4.0 0.00 0.00 0.00 82 1022.1
20260507042540 54 207 0.0 3.0 0.00 0.00 0.00 83 1022.1
20260507041542 55 258 1.0 4.0 0.00 0.00 0.00 82 1022.1
20260507041041 55 306 1.0 3.0 0.00 0.00 0.00 81 1022.0
20260507040543 55 284 1.0 3.0 0.00 0.00 0.00 81 1021.9
20260507040041 56 199 1.0 6.0 0.00 0.00 0.00 81 1021.8
20260507035540 56 301 1.0 6.0 0.00 0.00 0.00 81 1021.8
20260507035040 56 258 1.0 5.0 0.00 0.00 0.00 81 1021.7
20260507034919 57 325 1.0 4.0 0.00 0.00 0.00 80 1021.6
20260507034811 56 248 1.0 5.0 0.00 0.00 0.00 80 1021.7
20260507034047 57 325 1.0 4.0 0.00 0.00 0.00 80 1021.6